Home   Weather   Pierre   Past weeks

Flag for USA Past Weather in Pierre, South Dakota, USA — Yesterday and Last 2 Weeks

Now
70 °F

Sunny.


Feels Like: 75 °F
Forecast: 52 / 69 °F
Wind: 26 mph from Northwest

Location: Pierre Regional Airport

Current Time: Jun 23, 2017 at 5:27:42 pm

Latest Report: Jun 23, 2017 at 4:53 pm


Visibility: 10 mi

Pressure: 30.06 "Hg

Humidity: 26%

Dew Point: 33 °F

Location of PierreLocation

Past Weather in Pierre — Graph

°F

Pierre Temperature Yesterday

Maximum temperature yesterday: 78 °F (at 6:53 pm)
Minimum temperature yesterday: 55 °F (at 3:36 am)
Average temperature yesterday: 66 °F

High & Low Weather Summary for the Past Weeks

 TemperatureHumidityPressure
High102 °F (Jun 9, 5:53 pm)97% (Jun 13, 5:43 am)30.09 "Hg (Jun 13, 5:43 am)
Low51 °F (Jun 19, 4:53 am)14% (Jun 9, 5:53 pm)29.22 "Hg (Jun 10, 3:53 am)
Average71 °F53%29.73 "Hg
* Reported Jun 8 3:53 pm — Jun 23 3:53 pm, Pierre. Weather by CustomWeather, © 2017

Note: Actual official high and low records may vary slightly from our data, if they occured in-between our weather recording intervals... More about our weather records

Advertising

Pierre Weather History for the Previous 24 Hours

Scroll right to see more
 ConditionsComfort  
Time TempWeatherWind HumidityBarometerVisibility
3:53 pm
Fri, Jun 23
70 °FPassing clouds.24 mph28%30.05 "Hg10 mi
2:53 pm69 °FSunny.23 mph29%30.06 "Hg10 mi
1:53 pm68 °FSunny.24 mph32%30.06 "Hg10 mi
12:53 pm65 °FSunny.26 mph37%30.07 "Hg10 mi
11:53 am64 °FSunny.28 mph40%30.08 "Hg10 mi
10:53 am63 °FPartly sunny.24 mph48%30.07 "Hg10 mi
9:53 am58 °FOvercast.18 mph67%30.09 "Hg10 mi
8:53 am57 °FOvercast.14 mph67%30.08 "Hg10 mi
7:53 am57 °FOvercast.14 mph69%30.05 "Hg10 mi
6:53 am55 °FPartly sunny.14 mph74%30.03 "Hg10 mi
5:53 am55 °FClear.15 mph74%30.00 "Hg10 mi
4:53 am56 °FClear.17 mph72%29.98 "Hg10 mi
3:53 am57 °FClear.16 mph69%29.97 "Hg10 mi
2:53 am59 °FClear.20 mph56%29.94 "Hg10 mi
1:53 am59 °FClear.15 mph49%29.93 "Hg10 mi
12:53 am61 °FClear.16 mph50%29.91 "Hg10 mi
11:53 pm
Thu, Jun 22
62 °FClear.14 mph48%29.89 "Hg10 mi
10:53 pm62 °FPassing clouds.12 mph48%29.88 "Hg10 mi
9:53 pm68 °FClear.15 mph36%29.86 "Hg10 mi
8:53 pm71 °FSunny.9 mph44%29.83 "Hg10 mi
7:53 pm76 °FSunny.9 mph33%29.81 "Hg10 mi
6:53 pm78 °FSunny.9 mph31%29.79 "Hg10 mi
5:53 pm77 °FSunny.5 mph31%29.80 "Hg10 mi
Weather by CustomWeather, © 2017

See weather overviewHow to use our weather pages